LEMUR 2 TRUTNAHD

Last updated on April 8, 2017, 12:15 a.m. UTC

1 42069U 98067LE  17096.95736748  .00023593  00000-0  34109-3 0  9995
2 42069  51.6436  33.1219 0008822  40.2582 319.9073 15.55765987  4899
UTC
Height (km)
Latitude
Longitude
Inclination
Orbital Period
UTC large
Height (km)
Speed (km/s)
/
Latitude / Longitude
Inclination (degrees)
Orbital Period (minutes)
Azimuth
Elevation
Range (km)
Doppler Factor
iOS Compass Heading
iOS Angle

Next 30 passes for location: Hong Kong

Rise time Rise Azimuth (degrees) Set time Set Azimuth (degrees) Duration Max altitude (degrees)

No matching passes for this satellites